Preview of NWS' New Version of Forecast
This preview is not operational and should not be used for support decisions.

Regional Weather Roundup (RWR)

Issued by National Weather Service (NWS)

                            
000
ASUS45 KCYS 242110
RWRWY 

WYOMING REGIONAL WEATHER ROUNDUP
NATIONAL WEATHER SERVICE CHEYENNE WY
300 PM MDT MON JUN 24 2019

NOTE:  "FAIR" INDICATES FEW OR NO CLOUDS BELOW 12,000 FEET
WITH NO SIGNIFICANT WEATHER AND/OR OBSTRUCTIONS TO VISIBILITY.

WYZ001-242200-
YELLOWSTONE NATIONAL PARK
  
CITY           SKY/WX    TMP DP  RH WIND       PRES   REMARKS
LK YELLOWSTONE   N/A     56  30  37 MISG      30.05F                  
W YELLOWSTONE  NOT AVBL                                               

$$
WYZ002>013-054>058-071-098>099-242200-
NORTHERN WYOMING
  
CITY           SKY/WX    TMP DP  RH WIND       PRES   REMARKS
JACKSON        PTSUNNY   64  28  25 W21G29    30.01F                  
CODY           FAIR      68  43  40 NE9G18    29.90S                  
GREYBULL       FAIR      76  36  23 N14G21    29.82F                  
WORLAND        FAIR      76  40  27 NE9G20    29.84F                  
SHERIDAN       PTSUNNY   68  44  42 W10       29.87F                  
BUFFALO        PTSUNNY   63  45  51 NW9       29.91F                  
GILLETTE       PTSUNNY   68  49  50 NW8       29.87S                  
HULETT         MOCLDY    68  46  45 NW6       29.87S                  
NEWCASTLE      FAIR      72  43  35 NW15G23   29.85S                  

$$
WYZ014>020-022>026-101>103-242200-
CENTRAL WYOMING
  
CITY           SKY/WX    TMP DP  RH WIND       PRES   REMARKS
BIG PINEY      PTSUNNY   66  30  26 W15G22    30.05F                  
PINEDALE       MOCLDY    61  27  27 W15G26    30.06S                  
DUBOIS         MOCLDY    63  23  22 NW20G32   30.00S                  
LANDER         FAIR      70  24  17 NW15G32   29.89S                  
RIVERTON       FAIR      73  28  18 SW7       29.89S                  
CASPER         FAIR      75  35  23 W18G29    29.89S                  
DOUGLAS        FAIR      76  38  25 W13       29.86F                  

$$
WYZ021-027>030-104>119-242200-
SOUTHERN WYOMING
  
CITY           SKY/WX    TMP DP  RH WIND       PRES   REMARKS
EVANSTON       PTSUNNY   65  30  27 W15G32    30.09S                  
KEMMERER       FAIR      66  28  24 W21G31    30.09R                  
ROCK SPRINGS   PTSUNNY   72  28  19 W20G32    30.02F                  
DIXON          MOCLDY    70  30  22 S13       30.05F                  
RAWLINS        FAIR      69  30  23 W22G32    30.03F                  
SARATOGA       MOCLDY    68  32  26 SW18G29   30.05F                  
LARAMIE        FAIR      69  31  24 W26G33    30.03F                  
CHEYENNE       FAIR      70  36  28 W22G35    29.98S                  
TORRINGTON     FAIR      79  39  23 NW10      29.81S                  
PINE BLUFFS    FAIR      77  32  19 NW21G33   29.91S                  

$$